Location: Gleizolles
(44.4833°N, 6.7667°E)
Time: 19:16:09
(UTC+00:00)

Envisat - Pass Details

Date: 01 December 2022
Orbit: 763 x 765 km, 98.2° (Epoch: 06 February)

Event Time Altitude Azimuth Distance (km) Brightness Sun altitude
Rises 03:54:46 0° 12° (NNE) 3,244 6.4 -30.4°
Reaches altitude 10° 03:57:05 10° 12° (NNE) 2,313 5.6 -30.0°
Enters shadow 03:58:37 20° 12° (NNE) 1,716 4.9 -29.7°
